Location: Potomac
(46.8816°N, 113.5795°W)
Time: 06:18:34
(UTC+00:00)

Oscar 19 - Pass Details

Date: 05 July 2022
Orbit: 773 x 790 km, 98.8° (Epoch: 12 August)

Event Time Altitude Azimuth Distance (km) Brightness Sun altitude
Rises 09:58:05 0° 28° (NNE) 3,261 15.9 -13.6°
Reaches altitude 10° 10:01:06 10° 46° (NE) 2,327 14.5 -13.3°
Maximum altitude 10:04:41 19° 91° (E) 1,784 12.9 -13.0°
Drops below altitude 10° 10:08:14 10° 136° (SE) 2,317 13.0 -12.6°
Sets 10:11:13 0° 154° (SSE) 3,240 13.6 -12.3°
